Terug naar catalogus

DEIMOS

ActiefWetenschapSSO
NORAD 60526·PAYLOAD·🇺🇸 United States

Gelanceerd Aug 16, 2024 vanaf Vandenberg Space Force Base

Loading…

Volgende Passages (komende 24 uur)

TLE

VersSource: Space-Track

Epoch: Sep 14, 2026, 11:39 UTC

1 60526U 24149BL  26257.48603439  .00016999  00000-0  33535-3 0  9994
2 60526  97.3742 345.1257 0003998 331.4693  28.6337 15.47244592116244

Volg DEIMOS in realtime met AllMySat

Download on the App Store